Time,TemperatureF,DewpointF,PressureIn,WindDirection,WindDirectionDegrees,WindSpeedMPH,WindSpeedGustMPH,Humidity,HourlyPrecipIn,Conditions,Clouds,dailyrainin,SoftwareType,DateUTC
2013-05-12 00:03:00,55.6,42.4,30.08,South,175,1.0,3.0,61,0.00,,,0.00,WeatherTracker,2013-05-12 07:03:00,
2013-05-12 00:08:00,54.5,43.0,30.08,South,175,1.0,3.0,65,0.00,,,0.00,WeatherTracker,2013-05-12 07:08:00,
2013-05-12 00:13:00,53.9,44.3,30.08,South,175,0.0,3.0,70,0.00,,,0.00,WeatherTracker,2013-05-12 07:13:00,
2013-05-12 00:18:00,53.4,45.0,30.07,South,175,0.0,3.0,73,0.00,,,0.00,WeatherTracker,2013-05-12 07:18:00,
2013-05-12 00:23:00,52.2,44.9,30.08,South,175,0.0,2.0,76,0.00,,,0.00,WeatherTracker,2013-05-12 07:23:00,
2013-05-12 00:28:00,51.6,44.6,30.08,South,175,2.0,0.0,77,0.00,,,0.00,WeatherTracker,2013-05-12 07:28:00,
2013-05-12 00:33:00,51.7,44.4,30.07,South,175,1.0,2.0,76,0.00,,,0.00,WeatherTracker,2013-05-12 07:33:00,
2013-05-12 00:38:00,52.1,44.4,30.07,South,175,0.0,2.0,75,0.00,,,0.00,WeatherTracker,2013-05-12 07:38:00,
2013-05-12 00:43:00,52.6,44.2,30.08,South,175,0.0,2.0,73,0.00,,,0.00,WeatherTracker,2013-05-12 07:43:00,
2013-05-12 00:49:00,53.0,43.9,30.07,South,175,2.0,2.0,71,0.00,,,0.00,WeatherTracker,2013-05-12 07:49:00,
2013-05-12 00:54:00,53.6,41.3,30.07,South,175,1.0,2.0,63,0.00,,,0.00,WeatherTracker,2013-05-12 07:54:00,
2013-05-12 00:59:00,54.3,41.1,30.07,South,175,3.0,3.0,61,0.00,,,0.00,WeatherTracker,2013-05-12 07:59:00,
2013-05-12 01:04:00,53.6,41.7,30.08,South,175,2.0,3.0,64,0.00,,,0.00,WeatherTracker,2013-05-12 08:04:00,
2013-05-12 01:09:00,53.3,41.0,30.08,South,177,3.0,3.0,63,0.00,,,0.00,WeatherTracker,2013-05-12 08:09:00,
2013-05-12 01:14:00,53.2,40.5,30.08,South,177,2.0,5.0,62,0.00,,,0.00,WeatherTracker,2013-05-12 08:14:00,
2013-05-12 01:19:00,53.9,40.3,30.08,South,177,2.0,5.0,60,0.00,,,0.00,WeatherTracker,2013-05-12 08:19:00,
2013-05-12 01:24:00,52.9,41.9,30.08,South,175,2.0,4.0,66,0.00,,,0.00,WeatherTracker,2013-05-12 08:24:00,
2013-05-12 01:29:00,51.4,42.3,30.08,South,175,1.0,4.0,71,0.00,,,0.00,WeatherTracker,2013-05-12 08:29:00,
2013-05-12 01:34:00,50.9,42.2,30.08,South,175,2.0,4.0,72,0.00,,,0.00,WeatherTracker,2013-05-12 08:34:00,
2013-05-12 01:39:00,50.5,43.2,30.08,South,175,2.0,4.0,76,0.00,,,0.00,WeatherTracker,2013-05-12 08:39:00,
2013-05-12 01:44:00,50.5,42.9,30.08,South,175,1.0,3.0,75,0.00,,,0.00,WeatherTracker,2013-05-12 08:44:00,
2013-05-12 01:49:00,50.6,42.3,30.08,South,175,2.0,3.0,73,0.00,,,0.00,WeatherTracker,2013-05-12 08:49:00,
2013-05-12 01:54:00,50.8,40.2,30.08,South,175,0.0,2.0,67,0.00,,,0.00,WeatherTracker,2013-05-12 08:54:00,
2013-05-12 01:59:00,51.0,40.0,30.07,South,175,0.0,2.0,66,0.00,,,0.00,WeatherTracker,2013-05-12 08:59:00,
2013-05-12 02:04:00,51.3,39.9,30.07,South,175,1.0,2.0,65,0.00,,,0.00,WeatherTracker,2013-05-12 09:04:00,
2013-05-12 02:09:00,51.6,40.2,30.07,South,175,2.0,3.0,65,0.00,,,0.00,WeatherTracker,2013-05-12 09:09:00,
2013-05-12 02:14:00,51.4,40.0,30.07,SE,145,4.0,4.0,65,0.00,,,0.00,WeatherTracker,2013-05-12 09:14:00,
2013-05-12 02:19:00,50.1,40.7,30.07,SE,142,2.0,5.0,70,0.00,,,0.00,WeatherTracker,2013-05-12 09:19:00,
2013-05-12 02:24:00,49.0,41.8,30.07,SE,142,2.0,5.0,76,0.00,,,0.00,WeatherTracker,2013-05-12 09:24:00,
2013-05-12 02:29:00,48.7,41.5,30.07,SE,142,0.0,5.0,76,0.00,,,0.00,WeatherTracker,2013-05-12 09:29:00,
2013-05-12 02:34:00,49.0,41.1,30.07,SE,142,0.0,3.0,74,0.00,,,0.00,WeatherTracker,2013-05-12 09:34:00,
2013-05-12 02:39:00,49.2,40.9,30.08,SE,142,0.0,2.0,73,0.00,,,0.00,WeatherTracker,2013-05-12 09:39:00,
2013-05-12 02:44:00,49.3,40.7,30.08,SE,142,1.0,0.0,72,0.00,,,0.00,WeatherTracker,2013-05-12 09:44:00,
2013-05-12 02:50:00,49.6,40.6,30.07,SE,142,2.0,2.0,71,0.00,,,0.00,WeatherTracker,2013-05-12 09:50:00,
2013-05-12 02:55:00,49.9,40.1,30.07,SE,142,1.0,3.0,69,0.00,,,0.00,WeatherTracker,2013-05-12 09:55:00,
2013-05-12 03:00:00,50.2,40.1,30.07,SE,142,0.0,3.0,68,0.00,,,0.00,WeatherTracker,2013-05-12 10:00:00,
2013-05-12 03:05:00,50.4,39.9,30.07,SE,142,0.0,3.0,67,0.00,,,0.00,WeatherTracker,2013-05-12 10:05:00,
2013-05-12 03:10:00,50.5,40.0,30.08,SE,142,2.0,3.0,67,0.00,,,0.00,WeatherTracker,2013-05-12 10:10:00,
2013-05-12 03:15:00,50.5,40.3,30.08,SE,142,0.0,3.0,68,0.00,,,0.00,WeatherTracker,2013-05-12 10:15:00,
2013-05-12 03:20:00,50.0,39.9,30.08,SE,142,0.0,3.0,68,0.00,,,0.00,WeatherTracker,2013-05-12 10:20:00,
2013-05-12 03:25:00,48.8,39.8,30.08,SE,142,0.0,2.0,71,0.00,,,0.00,WeatherTracker,2013-05-12 10:25:00,
2013-05-12 03:30:00,48.3,40.1,30.08,SE,142,0.0,2.0,73,0.00,,,0.00,WeatherTracker,2013-05-12 10:30:00,
2013-05-12 03:35:00,47.9,39.3,30.08,SE,142,0.0,0.0,72,0.00,,,0.00,WeatherTracker,2013-05-12 10:35:00,
2013-05-12 03:40:00,47.7,39.1,30.08,SE,142,0.0,2.0,72,0.00,,,0.00,WeatherTracker,2013-05-12 10:40:00,
2013-05-12 03:45:00,47.3,39.1,30.08,SE,142,1.0,2.0,73,0.00,,,0.00,WeatherTracker,2013-05-12 10:45:00,
2013-05-12 03:50:00,47.8,39.6,30.08,SE,143,0.0,2.0,73,0.00,,,0.00,WeatherTracker,2013-05-12 10:50:00,
2013-05-12 03:55:00,48.4,39.4,30.08,SE,143,1.0,2.0,71,0.00,,,0.00,WeatherTracker,2013-05-12 10:55:00,
2013-05-12 04:00:00,48.9,39.6,30.08,SE,143,0.0,4.0,70,0.00,,,0.00,WeatherTracker,2013-05-12 11:00:00,
2013-05-12 04:05:00,48.7,39.7,30.08,SE,143,0.0,4.0,71,0.00,,,0.00,WeatherTracker,2013-05-12 11:05:00,
2013-05-12 04:10:00,48.5,39.9,30.08,SE,143,0.0,2.0,72,0.00,,,0.00,WeatherTracker,2013-05-12 11:10:00,
2013-05-12 04:15:00,47.7,39.8,30.08,SE,143,0.0,2.0,74,0.00,,,0.00,WeatherTracker,2013-05-12 11:15:00,
2013-05-12 04:20:00,46.8,39.0,30.08,SE,143,1.0,2.0,74,0.00,,,0.00,WeatherTracker,2013-05-12 11:20:00,
2013-05-12 04:26:00,46.4,38.9,30.09,SE,142,2.0,3.0,75,0.00,,,0.00,WeatherTracker,2013-05-12 11:26:00,
2013-05-12 04:31:00,46.4,39.6,30.08,SE,142,0.0,3.0,77,0.00,,,0.00,WeatherTracker,2013-05-12 11:31:00,
2013-05-12 04:36:00,45.7,38.6,30.08,SE,143,0.0,3.0,76,0.00,,,0.00,WeatherTracker,2013-05-12 11:36:00,
2013-05-12 04:41:00,45.1,38.3,30.08,SE,144,2.0,3.0,77,0.00,,,0.00,WeatherTracker,2013-05-12 11:41:00,
2013-05-12 04:46:00,45.9,39.1,30.08,SE,144,3.0,3.0,77,0.00,,,0.00,WeatherTracker,2013-05-12 11:46:00,
2013-05-12 04:51:00,46.9,39.1,30.08,SE,144,0.0,4.0,74,0.00,,,0.00,WeatherTracker,2013-05-12 11:51:00,
2013-05-12 04:56:00,46.7,39.2,30.09,SE,143,2.0,4.0,75,0.00,,,0.00,WeatherTracker,2013-05-12 11:56:00,
2013-05-12 05:01:00,46.6,39.1,30.09,SE,143,0.0,3.0,75,0.00,,,0.00,WeatherTracker,2013-05-12 12:01:00,
2013-05-12 05:06:00,46.4,39.3,30.09,SE,143,0.0,3.0,76,0.00,,,0.00,WeatherTracker,2013-05-12 12:06:00,
2013-05-12 05:11:00,46.3,39.2,30.09,SE,144,2.0,0.0,76,0.00,,,0.00,WeatherTracker,2013-05-12 12:11:00,
2013-05-12 05:16:00,46.3,39.2,30.09,SE,143,0.0,4.0,76,0.00,,,0.00,WeatherTracker,2013-05-12 12:16:00,
2013-05-12 05:21:00,46.1,39.0,30.09,SE,144,0.0,4.0,76,0.00,,,0.00,WeatherTracker,2013-05-12 12:21:00,
2013-05-12 05:26:00,45.7,38.9,30.09,SE,143,2.0,3.0,77,0.00,,,0.00,WeatherTracker,2013-05-12 12:26:00,
2013-05-12 05:31:00,44.9,39.1,30.09,SE,142,3.0,4.0,80,0.00,,,0.00,WeatherTracker,2013-05-12 12:31:00,
2013-05-12 05:36:00,44.5,39.4,30.10,SE,142,4.0,5.0,82,0.00,,,0.00,WeatherTracker,2013-05-12 12:36:00,
2013-05-12 05:41:00,45.5,39.7,30.10,SE,140,1.0,5.0,80,0.00,,,0.00,WeatherTracker,2013-05-12 12:41:00,
2013-05-12 05:46:00,45.8,39.7,30.10,South,181,2.0,5.0,79,0.00,,,0.00,WeatherTracker,2013-05-12 12:46:00,
2013-05-12 05:52:00,46.3,39.5,30.10,South,181,0.0,4.0,77,0.00,,,0.00,WeatherTracker,2013-05-12 12:52:00,
2013-05-12 05:57:00,46.3,39.5,30.10,South,181,2.0,4.0,77,0.00,,,0.00,WeatherTracker,2013-05-12 12:57:00,
2013-05-12 06:02:00,46.8,39.6,30.10,South,180,2.0,4.0,76,0.00,,,0.00,WeatherTracker,2013-05-12 13:02:00,
2013-05-12 06:07:00,47.8,39.9,30.10,South,181,1.0,3.0,74,0.00,,,0.00,WeatherTracker,2013-05-12 13:07:00,
2013-05-12 06:12:00,47.4,39.2,30.11,SW,233,1.0,6.0,73,0.00,,,0.00,WeatherTracker,2013-05-12 13:12:00,
2013-05-12 06:17:00,46.9,39.7,30.11,SW,233,0.0,6.0,76,0.00,,,0.00,WeatherTracker,2013-05-12 13:17:00,
2013-05-12 06:22:00,46.9,40.1,30.11,SW,233,0.0,6.0,77,0.00,,,0.00,WeatherTracker,2013-05-12 13:22:00,
2013-05-12 06:27:00,46.9,40.7,30.11,SW,234,0.0,2.0,79,0.00,,,0.00,WeatherTracker,2013-05-12 13:27:00,
2013-05-12 06:32:00,47.0,40.5,30.11,SW,234,0.0,0.0,78,0.00,,,0.00,WeatherTracker,2013-05-12 13:32:00,
2013-05-12 06:37:00,47.2,41.0,30.11,SW,234,0.0,0.0,79,0.00,,,0.00,WeatherTracker,2013-05-12 13:37:00,
2013-05-12 06:42:00,47.3,41.4,30.11,SW,234,1.0,0.0,80,0.00,,,0.00,WeatherTracker,2013-05-12 13:42:00,
2013-05-12 06:47:00,47.3,41.4,30.11,SW,235,0.0,2.0,80,0.00,,,0.00,WeatherTracker,2013-05-12 13:47:00,
2013-05-12 06:52:00,47.4,41.5,30.11,SW,235,2.0,2.0,80,0.00,,,0.00,WeatherTracker,2013-05-12 13:52:00,
2013-05-12 06:57:00,47.6,42.1,30.11,SW,235,0.0,2.0,81,0.00,,,0.00,WeatherTracker,2013-05-12 13:57:00,
2013-05-12 07:02:00,48.0,42.5,30.11,SW,234,0.0,2.0,81,0.00,,,0.00,WeatherTracker,2013-05-12 14:02:00,
2013-05-12 07:07:00,49.1,42.5,30.11,SW,234,0.0,2.0,78,0.00,,,0.00,WeatherTracker,2013-05-12 14:07:00,
2013-05-12 07:12:00,50.1,44.8,30.11,SW,232,0.0,2.0,82,0.00,,,0.00,WeatherTracker,2013-05-12 14:12:00,
2013-05-12 07:17:00,50.7,44.4,30.11,SW,232,0.0,2.0,79,0.00,,,0.00,WeatherTracker,2013-05-12 14:17:00,
2013-05-12 07:22:00,51.4,44.8,30.11,SW,232,0.0,2.0,78,0.00,,,0.00,WeatherTracker,2013-05-12 14:22:00,
2013-05-12 07:27:00,51.9,44.6,30.11,SW,233,0.0,2.0,76,0.00,,,0.00,WeatherTracker,2013-05-12 14:27:00,
2013-05-12 07:32:00,52.9,45.5,30.11,SW,234,0.0,2.0,76,0.00,,,0.00,WeatherTracker,2013-05-12 14:32:00,
2013-05-12 07:37:00,53.9,45.8,30.11,SW,234,0.0,2.0,74,0.00,,,0.00,WeatherTracker,2013-05-12 14:37:00,
2013-05-12 07:42:00,54.6,46.1,30.11,SW,234,0.0,0.0,73,0.00,,,0.00,WeatherTracker,2013-05-12 14:42:00,
2013-05-12 07:47:00,54.9,45.7,30.11,SW,234,0.0,1.0,71,0.00,,,0.00,WeatherTracker,2013-05-12 14:47:00,
2013-05-12 07:53:00,55.1,45.9,30.11,SW,234,2.0,2.0,71,0.00,,,0.00,WeatherTracker,2013-05-12 14:53:00,
2013-05-12 07:58:00,55.2,46.3,30.11,SW,234,1.0,3.0,72,0.00,,,0.00,WeatherTracker,2013-05-12 14:58:00,
2013-05-12 08:03:00,55.1,46.6,30.11,SW,236,1.0,3.0,73,0.00,,,0.00,WeatherTracker,2013-05-12 15:03:00,
2013-05-12 08:08:00,55.3,46.8,30.11,SW,236,2.0,3.0,73,0.00,,,0.00,WeatherTracker,2013-05-12 15:08:00,
2013-05-12 08:13:00,55.8,47.3,30.11,SW,236,2.0,4.0,73,0.00,,,0.00,WeatherTracker,2013-05-12 15:13:00,
2013-05-12 08:18:00,56.3,45.9,30.11,SW,236,1.0,4.0,68,0.00,,,0.00,WeatherTracker,2013-05-12 15:18:00,
2013-05-12 08:23:00,57.2,46.3,30.10,WSW,239,2.0,3.0,67,0.00,,,0.00,WeatherTracker,2013-05-12 15:23:00,
2013-05-12 08:28:00,58.1,46.4,30.10,WSW,241,1.0,4.0,65,0.00,,,0.00,WeatherTracker,2013-05-12 15:28:00,
2013-05-12 08:33:00,59.0,47.7,30.10,WSW,240,2.0,4.0,66,0.00,,,0.00,WeatherTracker,2013-05-12 15:33:00,
2013-05-12 08:38:00,59.7,46.2,30.10,WSW,242,2.0,3.0,61,0.00,,,0.00,WeatherTracker,2013-05-12 15:38:00,
2013-05-12 08:43:00,60.0,45.6,30.10,WSW,246,3.0,3.0,59,0.00,,,0.00,WeatherTracker,2013-05-12 15:43:00,
2013-05-12 08:48:00,59.9,45.5,30.10,North,360,1.0,5.0,59,0.00,,,0.00,WeatherTracker,2013-05-12 15:48:00,
2013-05-12 08:53:00,60.0,45.6,30.10,WSW,246,2.0,5.0,59,0.00,,,0.00,WeatherTracker,2013-05-12 15:53:00,
2013-05-12 08:58:00,60.6,46.6,30.10,North,360,2.0,5.0,60,0.00,,,0.00,WeatherTracker,2013-05-12 15:58:00,
2013-05-12 09:03:00,61.3,47.3,30.10,North,360,0.0,5.0,60,0.00,,,0.00,WeatherTracker,2013-05-12 16:03:00,
2013-05-12 09:08:00,62.0,48.4,30.10,North,360,2.0,4.0,61,0.00,,,0.00,WeatherTracker,2013-05-12 16:08:00,
2013-05-12 09:13:00,62.8,48.3,30.10,WSW,251,0.0,4.0,59,0.00,,,0.00,WeatherTracker,2013-05-12 16:13:00,
2013-05-12 09:18:00,63.5,47.5,30.10,WSW,253,2.0,4.0,56,0.00,,,0.00,WeatherTracker,2013-05-12 16:18:00,
2013-05-12 09:23:00,63.7,48.2,30.09,WSW,256,3.0,4.0,57,0.00,,,0.00,WeatherTracker,2013-05-12 16:23:00,
2013-05-12 09:28:00,63.8,47.8,30.09,West,261,3.0,5.0,56,0.00,,,0.00,WeatherTracker,2013-05-12 16:28:00,
2013-05-12 09:33:00,64.1,47.6,30.09,WNW,287,3.0,5.0,55,0.00,,,0.00,WeatherTracker,2013-05-12 16:33:00,
2013-05-12 09:39:00,64.5,47.5,30.09,WNW,288,2.0,6.0,54,0.00,,,0.00,WeatherTracker,2013-05-12 16:39:00,
2013-05-12 09:44:00,65.0,46.9,30.09,WNW,288,3.0,6.0,52,0.00,,,0.00,WeatherTracker,2013-05-12 16:44:00,
2013-05-12 09:49:00,65.5,48.4,30.09,WNW,288,3.0,5.0,54,0.00,,,0.00,WeatherTracker,2013-05-12 16:49:00,
2013-05-12 09:54:00,65.6,48.5,30.09,WNW,288,0.0,5.0,54,0.00,,,0.00,WeatherTracker,2013-05-12 16:54:00,
2013-05-12 09:59:00,66.1,48.0,30.09,WNW,289,1.0,5.0,52,0.00,,,0.00,WeatherTracker,2013-05-12 16:59:00,
2013-05-12 10:04:00,66.7,48.0,30.08,WNW,289,2.0,4.0,51,0.00,,,0.00,WeatherTracker,2013-05-12 17:04:00,
2013-05-12 10:09:00,67.4,49.2,30.08,WNW,289,0.0,4.0,52,0.00,,,0.00,WeatherTracker,2013-05-12 17:09:00,
2013-05-12 10:14:00,68.4,47.4,30.08,WNW,289,2.0,4.0,47,0.00,,,0.00,WeatherTracker,2013-05-12 17:14:00,
2013-05-12 10:19:00,69.0,46.2,30.08,WNW,290,3.0,4.0,44,0.00,,,0.00,WeatherTracker,2013-05-12 17:19:00,
2013-05-12 10:24:00,69.4,48.3,30.08,WNW,290,1.0,3.0,47,0.00,,,0.00,WeatherTracker,2013-05-12 17:24:00,
2013-05-12 10:29:00,69.8,48.1,30.08,WNW,295,2.0,4.0,46,0.00,,,0.00,WeatherTracker,2013-05-12 17:29:00,
2013-05-12 10:34:00,70.2,47.9,30.08,WNW,294,0.0,4.0,45,0.00,,,0.00,WeatherTracker,2013-05-12 17:34:00,
2013-05-12 10:39:00,71.5,49.0,30.08,WNW,297,1.0,4.0,45,0.00,,,0.00,WeatherTracker,2013-05-12 17:39:00,
2013-05-12 10:44:00,72.3,47.3,30.07,WNW,297,1.0,4.0,41,0.00,,,0.00,WeatherTracker,2013-05-12 17:44:00,
2013-05-12 10:49:00,72.5,48.7,30.07,WNW,300,1.0,4.0,43,0.00,,,0.00,WeatherTracker,2013-05-12 17:49:00,
2013-05-12 10:54:00,72.4,46.7,30.07,WNW,300,0.0,4.0,40,0.00,,,0.00,WeatherTracker,2013-05-12 17:54:00,
2013-05-12 10:59:00,72.8,46.4,30.07,WNW,300,2.0,4.0,39,0.00,,,0.00,WeatherTracker,2013-05-12 17:59:00,
2013-05-12 11:04:00,73.0,49.2,30.07,WNW,301,1.0,4.0,43,0.00,,,0.00,WeatherTracker,2013-05-12 18:04:00,
2013-05-12 11:09:00,73.3,45.4,30.07,NW,314,0.0,4.0,37,0.00,,,0.00,WeatherTracker,2013-05-12 18:09:00,
2013-05-12 11:14:00,73.8,47.3,30.07,NW,314,1.0,6.0,39,0.00,,,0.00,WeatherTracker,2013-05-12 18:14:00,
2013-05-12 11:19:00,74.4,47.1,30.07,NW,314,2.0,6.0,38,0.00,,,0.00,WeatherTracker,2013-05-12 18:19:00,
2013-05-12 11:24:00,74.8,47.5,30.07,NW,315,1.0,3.0,38,0.00,,,0.00,WeatherTracker,2013-05-12 18:24:00,
2013-05-12 11:30:00,75.2,47.1,30.06,NW,319,2.0,4.0,37,0.00,,,0.00,WeatherTracker,2013-05-12 18:30:00,
2013-05-12 11:35:00,75.5,48.1,30.06,NW,319,2.0,4.0,38,0.00,,,0.00,WeatherTracker,2013-05-12 18:35:00,
2013-05-12 11:40:00,75.6,46.0,30.06,NW,318,0.0,4.0,35,0.00,,,0.00,WeatherTracker,2013-05-12 18:40:00,
2013-05-12 11:45:00,75.6,46.0,30.06,NNW,329,1.0,6.0,35,0.00,,,0.00,WeatherTracker,2013-05-12 18:45:00,
2013-05-12 11:50:00,75.8,47.7,30.06,NNW,339,2.0,6.0,37,0.00,,,0.00,WeatherTracker,2013-05-12 18:50:00,
2013-05-12 11:55:00,76.1,47.2,30.06,North,350,3.0,5.0,36,0.00,,,0.00,WeatherTracker,2013-05-12 18:55:00,
2013-05-12 12:00:00,76.4,52.2,30.05,North,5,2.0,5.0,43,0.00,,,0.00,WeatherTracker,2013-05-12 19:00:00,
2013-05-12 12:05:00,76.5,46.8,30.05,NE,34,5.0,7.0,35,0.00,,,0.00,WeatherTracker,2013-05-12 19:05:00,
2013-05-12 12:10:00,76.7,45.4,30.05,NE,40,3.0,7.0,33,0.00,,,0.00,WeatherTracker,2013-05-12 19:10:00,
2013-05-12 12:15:00,77.0,48.7,30.05,NE,34,5.0,6.0,37,0.00,,,0.00,WeatherTracker,2013-05-12 19:15:00,
2013-05-12 12:20:00,77.1,48.8,30.05,NE,42,3.0,6.0,37,0.00,,,0.00,WeatherTracker,2013-05-12 19:20:00,
2013-05-12 12:25:00,77.0,44.9,30.04,NE,51,6.0,12.0,32,0.00,,,0.00,WeatherTracker,2013-05-12 19:25:00,
2013-05-12 12:30:00,77.1,46.5,30.04,NE,41,8.0,12.0,34,0.00,,,0.00,WeatherTracker,2013-05-12 19:30:00,
2013-05-12 12:35:00,77.1,44.1,30.04,ENE,66,6.0,12.0,31,0.00,,,0.00,WeatherTracker,2013-05-12 19:35:00,
2013-05-12 12:40:00,77.3,42.5,30.04,NE,46,7.0,12.0,29,0.00,,,0.00,WeatherTracker,2013-05-12 19:40:00,
2013-05-12 12:45:00,77.5,48.4,30.03,NE,54,10.0,12.0,36,0.00,,,0.00,WeatherTracker,2013-05-12 19:45:00,
2013-05-12 12:50:00,77.8,42.1,30.03,ENE,74,3.0,10.0,28,0.00,,,0.00,WeatherTracker,2013-05-12 19:50:00,
2013-05-12 12:55:00,77.9,40.2,30.03,ENE,69,3.0,12.0,26,0.00,,,0.00,WeatherTracker,2013-05-12 19:55:00,
2013-05-12 13:00:00,78.0,41.3,30.03,NE,36,9.0,12.0,27,0.00,,,0.00,WeatherTracker,2013-05-12 20:00:00,
2013-05-12 13:05:00,78.1,45.8,30.03,NE,44,6.0,10.0,32,0.00,,,0.00,WeatherTracker,2013-05-12 20:05:00,
2013-05-12 13:10:00,78.3,46.8,30.02,NE,52,5.0,10.0,33,0.00,,,0.00,WeatherTracker,2013-05-12 20:10:00,
2013-05-12 13:16:00,78.7,42.8,30.02,NE,45,5.0,10.0,28,0.00,,,0.00,WeatherTracker,2013-05-12 20:16:00,
2013-05-12 13:21:00,79.0,40.2,30.02,NE,52,4.0,9.0,25,0.00,,,0.00,WeatherTracker,2013-05-12 20:21:00,
2013-05-12 13:26:00,78.9,39.0,30.02,ENE,67,0.0,9.0,24,0.00,,,0.00,WeatherTracker,2013-05-12 20:26:00,
2013-05-12 13:31:00,79.4,38.4,30.02,ENE,67,0.0,7.0,23,0.00,,,0.00,WeatherTracker,2013-05-12 20:31:00,
2013-05-12 13:36:00,80.3,38.0,30.02,NE,36,6.0,6.0,22,0.00,,,0.00,WeatherTracker,2013-05-12 20:36:00,
2013-05-12 13:41:00,80.3,42.3,30.01,ENE,67,5.0,8.0,26,0.00,,,0.00,WeatherTracker,2013-05-12 20:41:00,
2013-05-12 13:46:00,80.0,42.0,30.01,ENE,59,7.0,8.0,26,0.00,,,0.00,WeatherTracker,2013-05-12 20:46:00,
2013-05-12 13:51:00,79.8,51.2,30.01,East,84,2.0,8.0,37,0.00,,,0.00,WeatherTracker,2013-05-12 20:51:00,
2013-05-12 13:56:00,80.3,43.2,30.01,East,97,3.0,8.0,27,0.00,,,0.00,WeatherTracker,2013-05-12 20:56:00,
2013-05-12 14:01:00,80.5,41.4,30.01,North,360,11.0,16.0,25,0.00,,,0.00,WeatherTracker,2013-05-12 21:01:00,
2013-05-12 14:06:00,80.2,40.1,30.01,SSW,198,14.0,16.0,24,0.00,,,0.00,WeatherTracker,2013-05-12 21:06:00,
2013-05-12 14:11:00,80.2,42.2,30.00,SW,215,14.0,18.0,26,0.00,,,0.00,WeatherTracker,2013-05-12 21:11:00,
2013-05-12 14:16:00,79.9,43.9,30.00,SSW,196,6.0,23.0,28,0.00,,,0.00,WeatherTracker,2013-05-12 21:16:00,
2013-05-12 14:21:00,80.2,45.0,30.00,SW,217,10.0,23.0,29,0.00,,,0.00,WeatherTracker,2013-05-12 21:21:00,
2013-05-12 14:26:00,80.5,40.4,30.00,SW,219,12.0,17.0,24,0.00,,,0.00,WeatherTracker,2013-05-12 21:26:00,
2013-05-12 14:31:00,80.2,37.9,30.00,NW,312,6.0,17.0,22,0.00,,,0.00,WeatherTracker,2013-05-12 21:31:00,
2013-05-12 14:36:00,80.3,43.2,30.00,South,191,14.0,17.0,27,0.00,,,0.00,WeatherTracker,2013-05-12 21:36:00,
2013-05-12 14:41:00,80.3,38.0,30.00,West,273,10.0,17.0,22,0.00,,,0.00,WeatherTracker,2013-05-12 21:41:00,
2013-05-12 14:46:00,80.5,40.4,30.00,SW,223,8.0,18.0,24,0.00,,,0.00,WeatherTracker,2013-05-12 21:46:00,
2013-05-12 14:51:00,81.2,42.0,29.99,SW,227,1.0,18.0,25,0.00,,,0.00,WeatherTracker,2013-05-12 21:51:00,
2013-05-12 14:56:00,81.2,41.0,29.99,SSW,202,12.0,27.0,24,0.00,,,0.00,WeatherTracker,2013-05-12 21:56:00,
2013-05-12 15:01:00,80.4,42.4,29.99,North,360,13.0,27.0,26,0.00,,,0.00,WeatherTracker,2013-05-12 22:01:00,
2013-05-12 15:06:00,79.6,41.7,29.99,SW,233,10.0,20.0,26,0.00,,,0.00,WeatherTracker,2013-05-12 22:06:00,
2013-05-12 15:11:00,79.6,42.7,29.98,North,360,13.0,20.0,27,0.00,,,0.00,WeatherTracker,2013-05-12 22:11:00,
2013-05-12 15:16:00,79.9,41.9,29.98,West,267,6.0,18.0,26,0.00,,,0.00,WeatherTracker,2013-05-12 22:16:00,
2013-05-12 15:21:00,80.2,45.0,29.98,WNW,302,5.0,18.0,29,0.00,,,0.00,WeatherTracker,2013-05-12 22:21:00,
2013-05-12 15:26:00,80.4,41.3,29.98,North,360,10.0,15.0,25,0.00,,,0.00,WeatherTracker,2013-05-12 22:26:00,
2013-05-12 15:31:00,80.0,43.0,29.98,West,268,12.0,14.0,27,0.00,,,0.00,WeatherTracker,2013-05-12 22:31:00,
2013-05-12 15:36:00,79.7,43.7,29.98,SW,229,9.0,21.0,28,0.00,,,0.00,WeatherTracker,2013-05-12 22:36:00,
2013-05-12 15:42:00,79.4,44.3,29.98,WNW,285,6.0,21.0,29,0.00,,,0.00,WeatherTracker,2013-05-12 22:42:00,
2013-05-12 15:47:00,79.1,43.2,29.97,West,278,17.0,22.0,28,0.00,,,0.00,WeatherTracker,2013-05-12 22:47:00,
2013-05-12 15:52:00,79.1,43.2,29.97,SW,232,4.0,22.0,28,0.00,,,0.00,WeatherTracker,2013-05-12 22:52:00,
2013-05-12 15:57:00,79.4,42.5,29.97,West,277,9.0,22.0,27,0.00,,,0.00,WeatherTracker,2013-05-12 22:57:00,
2013-05-12 16:02:00,79.3,42.4,29.97,WNW,298,7.0,19.0,27,0.00,,,0.00,WeatherTracker,2013-05-12 23:02:00,
2013-05-12 16:07:00,79.2,47.6,29.97,West,265,15.0,21.0,33,0.00,,,0.00,WeatherTracker,2013-05-12 23:07:00,
2013-05-12 16:12:00,79.0,44.0,29.97,WNW,288,18.0,21.0,29,0.00,,,0.00,WeatherTracker,2013-05-12 23:12:00,
2013-05-12 16:17:00,79.0,45.8,29.97,West,275,9.0,25.0,31,0.00,,,0.00,WeatherTracker,2013-05-12 23:17:00,
2013-05-12 16:22:00,79.1,44.1,29.96,SW,234,6.0,30.0,29,0.00,,,0.00,WeatherTracker,2013-05-12 23:22:00,
2013-05-12 16:27:00,79.3,45.2,29.96,West,281,10.0,30.0,30,0.00,,,0.00,WeatherTracker,2013-05-12 23:27:00,
2013-05-12 16:32:00,79.1,46.7,29.96,WSW,247,9.0,24.0,32,0.00,,,0.00,WeatherTracker,2013-05-12 23:32:00,
2013-05-12 16:37:00,79.0,44.9,29.96,West,267,20.0,24.0,30,0.00,,,0.00,WeatherTracker,2013-05-12 23:37:00,
2013-05-12 16:42:00,78.7,45.5,29.96,West,269,13.0,22.0,31,0.00,,,0.00,WeatherTracker,2013-05-12 23:42:00,
2013-05-12 16:47:00,78.5,44.5,29.95,West,274,14.0,33.0,30,0.00,,,0.00,WeatherTracker,2013-05-12 23:47:00,
2013-05-12 16:52:00,78.6,43.7,29.95,West,267,12.0,33.0,29,0.00,,,0.00,WeatherTracker,2013-05-12 23:52:00,
2013-05-12 16:57:00,78.4,43.5,29.95,West,260,18.0,27.0,29,0.00,,,0.00,WeatherTracker,2013-05-12 23:57:00,
2013-05-12 17:02:00,78.1,44.1,29.95,West,281,16.0,24.0,30,0.00,,,0.00,WeatherTracker,2013-05-13 00:02:00,
2013-05-12 17:07:00,78.0,44.9,29.95,West,261,19.0,26.0,31,0.00,,,0.00,WeatherTracker,2013-05-13 00:07:00,
2013-05-12 17:12:00,77.9,44.8,29.95,North,360,21.0,31.0,31,0.00,,,0.00,WeatherTracker,2013-05-13 00:12:00,
2013-05-12 17:17:00,78.0,42.2,29.95,West,267,23.0,31.0,28,0.00,,,0.00,WeatherTracker,2013-05-13 00:17:00,
2013-05-12 17:22:00,77.8,43.9,29.95,North,360,15.0,30.0,30,0.00,,,0.00,WeatherTracker,2013-05-13 00:22:00,
2013-05-12 17:27:00,77.6,43.7,29.95,North,360,14.0,28.0,30,0.00,,,0.00,WeatherTracker,2013-05-13 00:27:00,
2013-05-12 17:32:00,77.7,43.8,29.95,West,275,9.0,26.0,30,0.00,,,0.00,WeatherTracker,2013-05-13 00:32:00,
2013-05-12 17:37:00,77.7,43.8,29.95,North,360,7.0,24.0,30,0.00,,,0.00,WeatherTracker,2013-05-13 00:37:00,
2013-05-12 17:42:00,77.6,42.8,29.95,West,260,16.0,23.0,29,0.00,,,0.00,WeatherTracker,2013-05-13 00:42:00,
2013-05-12 17:47:00,77.3,43.4,29.95,WSW,247,22.0,28.0,30,0.00,,,0.00,WeatherTracker,2013-05-13 00:47:00,
2013-05-12 17:52:00,77.3,43.4,29.95,SW,234,6.0,28.0,30,0.00,,,0.00,WeatherTracker,2013-05-13 00:52:00,
2013-05-12 17:57:00,77.1,42.4,29.94,West,267,18.0,24.0,29,0.00,,,0.00,WeatherTracker,2013-05-13 00:57:00,
2013-05-12 18:02:00,76.6,43.7,29.95,North,360,10.0,31.0,31,0.00,,,0.00,WeatherTracker,2013-05-13 01:02:00,
2013-05-12 18:07:00,76.6,43.7,29.94,North,360,15.0,31.0,31,0.00,,,0.00,WeatherTracker,2013-05-13 01:07:00,
2013-05-12 18:13:00,76.1,43.3,29.95,SW,214,15.0,23.0,31,0.00,,,0.00,WeatherTracker,2013-05-13 01:13:00,
2013-05-12 18:18:00,76.0,43.2,29.95,West,275,12.0,23.0,31,0.00,,,0.00,WeatherTracker,2013-05-13 01:18:00,
2013-05-12 18:23:00,76.1,41.5,29.95,WSW,257,18.0,22.0,29,0.00,,,0.00,WeatherTracker,2013-05-13 01:23:00,
2013-05-12 18:28:00,76.0,41.4,29.95,West,274,21.0,24.0,29,0.00,,,0.00,WeatherTracker,2013-05-13 01:28:00,
2013-05-12 18:33:00,75.4,41.8,29.94,West,277,21.0,24.0,30,0.00,,,0.00,WeatherTracker,2013-05-13 01:33:00,
2013-05-12 18:38:00,75.4,42.6,29.95,West,278,8.0,32.0,31,0.00,,,0.00,WeatherTracker,2013-05-13 01:38:00,
2013-05-12 18:43:00,75.1,43.2,29.94,SW,232,13.0,32.0,32,0.00,,,0.00,WeatherTracker,2013-05-13 01:43:00,
2013-05-12 18:48:00,74.9,42.2,29.94,West,267,16.0,22.0,31,0.00,,,0.00,WeatherTracker,2013-05-13 01:48:00,
2013-05-12 18:53:00,74.4,40.1,29.94,West,266,15.0,22.0,29,0.00,,,0.00,WeatherTracker,2013-05-13 01:53:00,
2013-05-12 18:58:00,74.1,40.7,29.95,West,263,6.0,23.0,30,0.00,,,0.00,WeatherTracker,2013-05-13 01:58:00,
2013-05-12 19:03:00,74.0,41.4,29.94,SW,219,20.0,23.0,31,0.00,,,0.00,WeatherTracker,2013-05-13 02:03:00,
2013-05-12 19:08:00,74.3,40.0,29.95,West,263,10.0,26.0,29,0.00,,,0.00,WeatherTracker,2013-05-13 02:08:00,
2013-05-12 19:13:00,73.5,40.2,29.94,West,271,22.0,26.0,30,0.00,,,0.00,WeatherTracker,2013-05-13 02:13:00,
2013-05-12 19:18:00,73.7,40.3,29.95,WNW,294,18.0,23.0,30,0.00,,,0.00,WeatherTracker,2013-05-13 02:18:00,
2013-05-12 19:23:00,73.2,40.7,29.95,WNW,285,9.0,23.0,31,0.00,,,0.00,WeatherTracker,2013-05-13 02:23:00,
2013-05-12 19:28:00,73.0,41.4,29.95,SSW,210,4.0,23.0,32,0.00,,,0.00,WeatherTracker,2013-05-13 02:28:00,
2013-05-12 19:33:00,73.1,40.7,29.95,West,277,17.0,21.0,31,0.00,,,0.00,WeatherTracker,2013-05-13 02:33:00,
2013-05-12 19:38:00,73.0,39.7,29.95,West,263,13.0,21.0,30,0.00,,,0.00,WeatherTracker,2013-05-13 02:38:00,
2013-05-12 19:43:00,72.8,40.4,29.95,SW,230,7.0,22.0,31,0.00,,,0.00,WeatherTracker,2013-05-13 02:43:00,
2013-05-12 19:48:00,72.5,40.1,29.95,SW,232,14.0,22.0,31,0.00,,,0.00,WeatherTracker,2013-05-13 02:48:00,
2013-05-12 19:53:00,72.8,40.4,29.96,WNW,288,7.0,27.0,31,0.00,,,0.00,WeatherTracker,2013-05-13 02:53:00,
2013-05-12 19:58:00,72.2,39.0,29.96,WNW,300,7.0,27.0,30,0.00,,,0.00,WeatherTracker,2013-05-13 02:58:00,
2013-05-12 20:03:00,72.0,39.7,29.95,North,360,16.0,22.0,31,0.00,,,0.00,WeatherTracker,2013-05-13 03:03:00,
2013-05-12 20:08:00,72.1,38.9,29.96,SSW,212,15.0,25.0,30,0.00,,,0.00,WeatherTracker,2013-05-13 03:08:00,
2013-05-12 20:13:00,72.1,38.9,29.96,SW,216,18.0,25.0,30,0.00,,,0.00,WeatherTracker,2013-05-13 03:13:00,
2013-05-12 20:18:00,72.1,39.8,29.97,WNW,284,13.0,23.0,31,0.00,,,0.00,WeatherTracker,2013-05-13 03:18:00,
2013-05-12 20:23:00,73.2,37.2,29.96,NW,312,5.0,23.0,27,0.00,,,0.00,WeatherTracker,2013-05-13 03:23:00,
2013-05-12 20:28:00,73.2,38.1,29.96,West,269,21.0,23.0,28,0.00,,,0.00,WeatherTracker,2013-05-13 03:28:00,
2013-05-12 20:33:00,73.3,36.3,29.97,NW,323,2.0,23.0,26,0.00,,,0.00,WeatherTracker,2013-05-13 03:33:00,
2013-05-12 20:39:00,73.6,36.6,29.97,NNE,25,0.0,21.0,26,0.00,,,0.00,WeatherTracker,2013-05-13 03:39:00,
2013-05-12 20:44:00,73.3,37.3,29.97,NW,321,2.0,17.0,27,0.00,,,0.00,WeatherTracker,2013-05-13 03:44:00,
2013-05-12 20:49:00,72.8,36.9,29.98,WNW,293,7.0,7.0,27,0.00,,,0.00,WeatherTracker,2013-05-13 03:49:00,
2013-05-12 20:54:00,72.8,36.9,29.98,SW,219,1.0,15.0,27,0.00,,,0.00,WeatherTracker,2013-05-13 03:54:00,
2013-05-12 20:59:00,72.6,36.7,29.98,NW,322,12.0,18.0,27,0.00,,,0.00,WeatherTracker,2013-05-13 03:59:00,
2013-05-12 21:01:00,72.6,36.7,29.98,WSW,246,14.0,18.0,27,0.00,,,0.00,WeatherTracker,2013-05-13 04:01:00,
2013-05-12 21:03:00,72.3,36.4,29.98,NW,311,14.0,18.0,27,0.00,,,0.00,WeatherTracker,2013-05-13 04:03:00,
2013-05-12 21:08:00,72.6,38.5,29.98,ENE,65,2.0,19.0,29,0.00,,,0.00,WeatherTracker,2013-05-13 04:08:00,
2013-05-12 21:13:00,72.0,38.9,29.98,NE,55,3.0,19.0,30,0.00,,,0.00,WeatherTracker,2013-05-13 04:13:00,
2013-05-12 21:19:00,70.8,38.7,29.98,ENE,59,4.0,12.0,31,0.00,,,0.00,WeatherTracker,2013-05-13 04:19:00,
2013-05-12 21:24:00,68.9,40.1,29.98,ENE,61,5.0,8.0,35,0.00,,,0.00,WeatherTracker,2013-05-13 04:24:00,
2013-05-12 21:29:00,68.4,39.7,29.98,ENE,61,5.0,7.0,35,0.00,,,0.00,WeatherTracker,2013-05-13 04:29:00,
2013-05-12 21:34:00,67.9,40.7,29.98,ENE,64,5.0,9.0,37,0.00,,,0.00,WeatherTracker,2013-05-13 04:34:00,
2013-05-12 21:39:00,66.1,42.3,29.98,SE,136,6.0,9.0,42,0.00,,,0.00,WeatherTracker,2013-05-13 04:39:00,
2013-05-12 21:44:00,64.7,41.1,29.99,ESE,111,2.0,9.0,42,0.00,,,0.00,WeatherTracker,2013-05-13 04:44:00,
2013-05-12 21:49:00,64.2,41.2,29.99,ESE,113,0.0,9.0,43,0.00,,,0.00,WeatherTracker,2013-05-13 04:49:00,
2013-05-12 21:54:00,64.0,40.4,29.99,ESE,112,1.0,7.0,42,0.00,,,0.00,WeatherTracker,2013-05-13 04:54:00,
2013-05-12 21:59:00,64.1,39.9,29.99,East,89,6.0,6.0,41,0.00,,,0.00,WeatherTracker,2013-05-13 04:59:00,
2013-05-12 22:04:00,63.9,40.4,30.00,East,80,5.0,9.0,42,0.00,,,0.00,WeatherTracker,2013-05-13 05:04:00,
2013-05-12 22:09:00,62.7,42.7,29.99,East,79,2.0,9.0,48,0.00,,,0.00,WeatherTracker,2013-05-13 05:09:00,
2013-05-12 22:14:00,61.2,41.3,30.00,East,79,1.0,7.0,48,0.00,,,0.00,WeatherTracker,2013-05-13 05:14:00,
2013-05-12 22:19:00,61.7,39.0,30.00,East,79,2.0,7.0,43,0.00,,,0.00,WeatherTracker,2013-05-13 05:19:00,
2013-05-12 22:24:00,62.0,39.2,30.00,East,79,2.0,4.0,43,0.00,,,0.00,WeatherTracker,2013-05-13 05:24:00,
2013-05-12 22:29:00,62.5,41.4,30.00,East,79,2.0,4.0,46,0.00,,,0.00,WeatherTracker,2013-05-13 05:29:00,
2013-05-12 22:34:00,61.7,40.7,30.00,East,79,2.0,4.0,46,0.00,,,0.00,WeatherTracker,2013-05-13 05:34:00,
2013-05-12 22:39:00,61.1,40.7,30.00,East,79,2.0,3.0,47,0.00,,,0.00,WeatherTracker,2013-05-13 05:39:00,
2013-05-12 22:44:00,61.1,40.7,30.00,East,79,1.0,3.0,47,0.00,,,0.00,WeatherTracker,2013-05-13 05:44:00,
2013-05-12 22:50:00,60.6,39.7,30.00,South,186,4.0,6.0,46,0.00,,,0.00,WeatherTracker,2013-05-13 05:50:00,
2013-05-12 22:55:00,60.3,38.9,30.00,South,186,0.0,6.0,45,0.00,,,0.00,WeatherTracker,2013-05-13 05:55:00,
2013-05-12 23:00:00,60.1,39.3,30.00,South,186,0.0,4.0,46,0.00,,,0.00,WeatherTracker,2013-05-13 06:00:00,
2013-05-12 23:05:00,59.1,38.3,30.00,South,187,3.0,4.0,46,0.00,,,0.00,WeatherTracker,2013-05-13 06:05:00,
2013-05-12 23:10:00,58.3,39.2,30.00,South,187,2.0,4.0,49,0.00,,,0.00,WeatherTracker,2013-05-13 06:10:00,
2013-05-12 23:15:00,57.5,40.0,30.00,South,185,2.0,5.0,52,0.00,,,0.00,WeatherTracker,2013-05-13 06:15:00,
2013-05-12 23:20:00,56.2,38.8,30.00,South,185,0.0,5.0,52,0.00,,,0.00,WeatherTracker,2013-05-13 06:20:00,
2013-05-12 23:25:00,56.5,38.1,30.00,South,185,0.0,3.0,50,0.00,,,0.00,WeatherTracker,2013-05-13 06:25:00,
2013-05-12 23:30:00,56.8,40.3,30.00,South,186,0.0,3.0,54,0.00,,,0.00,WeatherTracker,2013-05-13 06:30:00,
2013-05-12 23:35:00,56.1,40.2,30.00,South,188,2.0,4.0,55,0.00,,,0.00,WeatherTracker,2013-05-13 06:35:00,
2013-05-12 23:40:00,55.8,36.9,30.00,South,187,2.0,4.0,49,0.00,,,0.00,WeatherTracker,2013-05-13 06:40:00,
2013-05-12 23:45:00,56.9,37.4,30.00,South,187,1.0,3.0,48,0.00,,,0.00,WeatherTracker,2013-05-13 06:45:00,
2013-05-12 23:50:00,57.1,38.6,30.00,South,187,2.0,3.0,50,0.00,,,0.00,WeatherTracker,2013-05-13 06:50:00,
2013-05-12 23:55:00,56.1,37.7,30.00,SSE,158,0.0,6.0,50,0.00,,,0.00,WeatherTracker,2013-05-13 06:55:00,